When you browse on this site, cookies collect data to enhance your experience and personalize the content and advertising you see.
Visit our Privacy Policy to learn more. By continuing to use the site, you agree to this use of cookies and data.

Stündliche Wetter Juárez

Heute, 24 September, Donnerstag

Zeit Temperatur Niederschläge Wind Luftdruck Luftfeuchtigkeit
00:00 +26°C° 0 mm 1 m/S 726 mmHg 56%
01:00 +25°C° 0 mm 1 m/S 726 mmHg 55%
02:00 +25°C° 0 mm 1 m/S 725 mmHg 54%
03:00 +25°C° 0 mm 1 m/S 725 mmHg 56%
04:00 +24°C° 0 mm 1 m/S 725 mmHg 58%
05:00 +24°C° 0 mm 1 m/S 725 mmHg 60%
06:00 +25°C° 0 mm 1 m/S 726 mmHg 58%
07:00 +27°C° 0 mm 1 m/S 726 mmHg 55%
08:00 +29°C° 0 mm 1 m/S 727 mmHg 52%
09:00 +30°C° 0 mm 1 m/S 727 mmHg 49%
10:00 +31°C° 0 mm 1 m/S 727 mmHg 45%
11:00 +33°C° 0 mm 1 m/S 727 mmHg 41%
12:00 +34°C° 0 mm 2 m/S 726 mmHg 40%
13:00 +35°C° 0 mm 2 m/S 726 mmHg 38%
14:00 +36°C° 0 mm 3 m/S 725 mmHg 37%
15:00 +34°C° 0 mm 3 m/S 725 mmHg 41%
16:00 +33°C° 0 mm 3 m/S 725 mmHg 46%
17:00 +31°C° 0 mm 3 m/S 725 mmHg 51%
18:00 +30°C° 0 mm 2 m/S 725 mmHg 54%
19:00 +29°C° 0 mm 2 m/S 726 mmHg 56%
20:00 +27°C° 0 mm 1 m/S 727 mmHg 59%
21:00 +27°C° 0 mm 1 m/S 727 mmHg 60%
22:00 +26°C° 0 mm 1 m/S 727 mmHg 61%
23:00 +26°C° 0 mm 1 m/S 727 mmHg 62%

Morgen, 25 September, Freitag

Zeit Temperatur Niederschläge Wind Luftdruck Luftfeuchtigkeit
00:00 +25°C° 0 mm 1 m/S 726 mmHg 70%
01:00 +25°C° 0 mm 1 m/S 726 mmHg 78%
02:00 +24°C° 0 mm 1 m/S 726 mmHg 86%
03:00 +24°C° 0 mm 1 m/S 726 mmHg 85%
04:00 +24°C° 0 mm 1 m/S 726 mmHg 85%
05:00 +24°C° 0 mm 1 m/S 726 mmHg 84%
06:00 +25°C° 0 mm 1 m/S 727 mmHg 79%
07:00 +26°C° 0 mm 1 m/S 727 mmHg 74%
08:00 +28°C° 0 mm 1 m/S 727 mmHg 70%
09:00 +29°C° 0 mm 1 m/S 727 mmHg 63%
10:00 +31°C° 0 mm 2 m/S 727 mmHg 57%
11:00 +32°C° 0 mm 2 m/S 727 mmHg 50%
12:00 +34°C° 0.1 mm 2 m/S 726 mmHg 48%
13:00 +34°C° 0.1 mm 2 m/S 726 mmHg 46%
14:00 +35°C° 0.1 mm 3 m/S 725 mmHg 44%
15:00 +34°C° 0.1 mm 3 m/S 725 mmHg 47%
16:00 +33°C° 0.1 mm 3 m/S 725 mmHg 50%
17:00 +33°C° 0.1 mm 3 m/S 725 mmHg 53%
18:00 +30°C° 0.5 mm 2 m/S 725 mmHg 58%
19:00 +29°C° 0.5 mm 1 m/S 726 mmHg 63%
20:00 +27°C° 0.5 mm 1 m/S 727 mmHg 69%
21:00 +27°C° 0 mm 1 m/S 727 mmHg 70%
22:00 +26°C° 0 mm 1 m/S 727 mmHg 71%
23:00 +26°C° 0 mm 1 m/S 727 mmHg 73%

übermorgen, 26 September, Samstag

Zeit Temperatur Niederschläge Wind Luftdruck Luftfeuchtigkeit
00:00 +26°C° 0 mm 1 m/S 726 mmHg 75%
01:00 +25°C° 0 mm 1 m/S 725 mmHg 77%
02:00 +25°C° 0 mm 1 m/S 725 mmHg 79%
03:00 +25°C° 0 mm 1 m/S 725 mmHg 79%
04:00 +24°C° 0 mm 1 m/S 725 mmHg 79%
05:00 +24°C° 0 mm 1 m/S 725 mmHg 80%
06:00 +25°C° 0 mm 1 m/S 725 mmHg 75%
07:00 +27°C° 0 mm 1 m/S 726 mmHg 71%
08:00 +28°C° 0 mm 1 m/S 726 mmHg 66%
09:00 +30°C° 0 mm 1 m/S 726 mmHg 60%
10:00 +32°C° 0 mm 2 m/S 726 mmHg 54%
11:00 +34°C° 0 mm 2 m/S 725 mmHg 47%
12:00 +35°C° 0 mm 2 m/S 725 mmHg 44%
13:00 +36°C° 0 mm 2 m/S 724 mmHg 41%
14:00 +37°C° 0 mm 2 m/S 723 mmHg 38%
15:00 +36°C° 0 mm 2 m/S 723 mmHg 42%
16:00 +35°C° 0 mm 2 m/S 723 mmHg 47%
17:00 +34°C° 0 mm 2 m/S 723 mmHg 51%
18:00 +31°C° 0 mm 3 m/S 723 mmHg 55%
19:00 +30°C° 0 mm 3 m/S 724 mmHg 59%
20:00 +28°C° 0 mm 3 m/S 724 mmHg 63%
21:00 +28°C° 0 mm 3 m/S 724 mmHg 64%
22:00 +27°C° 0 mm 3 m/S 724 mmHg 66%
23:00 +26°C° 0 mm 2 m/S 724 mmHg 68%

27 September, Sonntag

Zeit Temperatur Niederschläge Wind Luftdruck Luftfeuchtigkeit
00:00 +26°C° 0 mm 2 m/S 724 mmHg 67%
01:00 +26°C° 0 mm 2 m/S 723 mmHg 67%
02:00 +25°C° 0 mm 1 m/S 723 mmHg 67%
03:00 +25°C° 0 mm 1 m/S 723 mmHg 69%
04:00 +25°C° 0 mm 1 m/S 723 mmHg 70%
05:00 +24°C° 0 mm 1 m/S 723 mmHg 71%
06:00 +26°C° 0 mm 1 m/S 724 mmHg 65%
07:00 +28°C° 0 mm 1 m/S 724 mmHg 59%
08:00 +30°C° 0 mm 1 m/S 724 mmHg 53%
09:00 +32°C° 0 mm 1 m/S 724 mmHg 46%
10:00 +34°C° 0 mm 1 m/S 724 mmHg 39%
11:00 +37°C° 0 mm 2 m/S 724 mmHg 32%
12:00 +38°C° 0 mm 2 m/S 724 mmHg 30%
13:00 +39°C° 0 mm 3 m/S 723 mmHg 28%
14:00 +40°C° 0 mm 3 m/S 723 mmHg 26%
15:00 +38°C° 0 mm 3 m/S 723 mmHg 31%
16:00 +37°C° 0 mm 2 m/S 723 mmHg 37%
17:00 +35°C° 0 mm 2 m/S 723 mmHg 43%
18:00 +32°C° 0 mm 2 m/S 723 mmHg 50%
19:00 +31°C° 0 mm 2 m/S 724 mmHg 58%
20:00 +29°C° 0 mm 2 m/S 725 mmHg 66%
21:00 +28°C° 0 mm 2 m/S 725 mmHg 71%
22:00 +27°C° 0 mm 2 m/S 725 mmHg 76%
23:00 +27°C° 0 mm 2 m/S 725 mmHg 81%

28 September, Montag

Zeit Temperatur Niederschläge Wind Luftdruck Luftfeuchtigkeit
00:00 +26°C° 0 mm 1 m/S 725 mmHg 83%
01:00 +26°C° 0 mm 1 m/S 725 mmHg 85%
02:00 +26°C° 0 mm 1 m/S 725 mmHg 87%
03:00 +25°C° 0.1 mm 1 m/S 725 mmHg 87%
04:00 +25°C° 0.1 mm 1 m/S 725 mmHg 88%
05:00 +25°C° 0.1 mm 1 m/S 725 mmHg 89%
06:00 +26°C° 0.1 mm 1 m/S 726 mmHg 85%
07:00 +27°C° 0.1 mm 1 m/S 726 mmHg 81%
08:00 +28°C° 0.1 mm 1 m/S 727 mmHg 77%
09:00 +29°C° 0 mm 1 m/S 727 mmHg 71%
10:00 +30°C° 0 mm 2 m/S 727 mmHg 64%
11:00 +32°C° 0 mm 2 m/S 726 mmHg 58%
12:00 +32°C° 0 mm 2 m/S 726 mmHg 54%
13:00 +34°C° 0 mm 3 m/S 725 mmHg 49%
14:00 +35°C° 0 mm 3 m/S 724 mmHg 45%
15:00 +34°C° 0 mm 3 m/S 725 mmHg 48%
16:00 +33°C° 0 mm 3 m/S 725 mmHg 51%
17:00 +31°C° 0 mm 3 m/S 725 mmHg 54%
18:00 +30°C° 0 mm 3 m/S 725 mmHg 57%
19:00 +29°C° 0 mm 2 m/S 726 mmHg 61%
20:00 +28°C° 0 mm 2 m/S 726 mmHg 65%
21:00 +28°C° 0 mm 2 m/S 726 mmHg 68%
22:00 +27°C° 0 mm 2 m/S 726 mmHg 72%
23:00 +26°C° 0 mm 2 m/S 726 mmHg 76%

29 September, Dienstag

Zeit Temperatur Niederschläge Wind Luftdruck Luftfeuchtigkeit
00:00 +26°C° 0 mm 1 m/S 725 mmHg 77%
01:00 +25°C° 0 mm 1 m/S 725 mmHg 79%
02:00 +24°C° 0 mm 1 m/S 724 mmHg 80%
03:00 +24°C° 0 mm 1 m/S 724 mmHg 80%
04:00 +24°C° 0 mm 1 m/S 725 mmHg 80%
05:00 +24°C° 0 mm 1 m/S 725 mmHg 80%
06:00 +25°C° 0 mm 1 m/S 725 mmHg 76%
07:00 +27°C° 0 mm 1 m/S 726 mmHg 71%
08:00 +28°C° 0 mm 1 m/S 726 mmHg 67%
09:00 +29°C° 0 mm 2 m/S 726 mmHg 60%
10:00 +31°C° 0 mm 2 m/S 726 mmHg 52%
11:00 +34°C° 0 mm 3 m/S 726 mmHg 45%
12:00 +34°C° 0 mm 3 m/S 725 mmHg 43%
13:00 +35°C° 0 mm 3 m/S 725 mmHg 40%
14:00 +36°C° 0 mm 4 m/S 724 mmHg 38%
15:00 +35°C° 0 mm 4 m/S 725 mmHg 42%
16:00 +34°C° 0 mm 3 m/S 725 mmHg 45%
17:00 +31°C° 0 mm 3 m/S 725 mmHg 49%
18:00 +30°C° 0.1 mm 3 m/S 726 mmHg 57%
19:00 +29°C° 0.1 mm 3 m/S 726 mmHg 65%
20:00 +27°C° 0.1 mm 3 m/S 727 mmHg 72%
21:00 +27°C° 0.1 mm 2 m/S 727 mmHg 74%
22:00 +26°C° 0.1 mm 2 m/S 727 mmHg 75%
23:00 +26°C° 0.1 mm 1 m/S 727 mmHg 76%
Mehr zeigen